Prague, Czech Republic

11:38 AM CET on January 24, 2017 (GMT +0100)
Ruzyne

Weather History for LKPR - April, 2013

Change the Weather History Date:

Sunday, April 21, 2013

  Actual Average Record
Temperature  
Mean Temperature 52 °F -  
Max Temperature 64 °F 62 °F 71 °F (2011)
Min Temperature 40 °F 42 °F 24 °F (1997)
Degree Days  
Heating Degree Days 13    
Growing Degree Days 2 (Base 50)    
Moisture  
Dew Point 43 °F    
Average Humidity 69    
Maximum Humidity 87    
Minimum Humidity 50    
Precipitation  
Precipitation 0.00 in 0.09 in - ()
Sea Level Pressure  
Sea Level Pressure 30.09 in    
Wind  
Wind Speed 9 mph ()    
Max Wind Speed 14 mph    
Max Gust Speed -    
Visibility 7.0 miles    
Events      
Averages and records for this station are not official NWS values.
T = Trace of Precipitation, MM = Missing Value Source: Averaged Metar Reports

Daily Weather History Graph

Daily Weather History Graph

Search for Another Location

Airport or City:

Trip Planner

Search our weather history database for the weather conditions in past years. The results will help you decide how hot, cold, wet, or windy it might be!

Date:

Astronomy

Apr. 21, 2013 Rise Set
Actual Time 5:57 AM CEST 8:06 PM CEST
Civil Twilight 5:22 AM CEST 8:41 PM CEST
Nautical Twilight 4:39 AM CEST 9:25 PM CEST
Astronomical Twilight 3:49 AM CEST 10:15 PM CEST
Moon 3:08 PM CEST (4/21) 3:38 AM CEST (4/21)
Length of Visible Light 15h 18m
Length of Day
14h 08m
Waxing Gibbous, 77% of the Moon is Illuminated
Apr 21
Waxing Gibbous
Apr 25
Full
May 2
Last Quarter
May 10
New
May 18
First Quarter

Hourly Weather History & Observations

Time (CEST) Temp. Windchill Dew Point Humidity Pressure Visibility Wind Dir Wind Speed Gust Speed Precip Events Conditions
12:00 AM 44.6 °F 39.2 °F 37.4 °F 76% 30.24 in 6.2 mi East 10.4 mph - N/A   Partly Cloudy
12:30 AM 46.4 °F 41.5 °F 37.4 °F 71% 30.24 in 6.2 mi ENE 10.4 mph - N/A   Partly Cloudy
1:00 AM 44.6 °F 39.7 °F 39.2 °F 81% 30.24 in 6.2 mi ENE 9.2 mph - N/A   Mostly Cloudy
1:30 AM 46.4 °F 41.1 °F 37.4 °F 71% 30.24 in 6.2 mi ENE 11.5 mph - N/A   Overcast
2:00 AM 45 °F - 37 °F 66% 30.27 in 19 mi ENE 11.2 mph - -   Overcast
2:00 AM 44.6 °F 39.7 °F 37.4 °F 76% 30.21 in 6.2 mi NE 9.2 mph - N/A   Mostly Cloudy
2:30 AM 44.6 °F 40.7 °F 37.4 °F 76% 30.21 in 6.2 mi ENE 6.9 mph - N/A   Mostly Cloudy
3:00 AM 44.6 °F 40.2 °F 37.4 °F 76% 30.21 in 6.2 mi ENE 8.1 mph - N/A   Mostly Cloudy
3:30 AM 44.6 °F 40.2 °F 37.4 °F 76% 30.21 in 6.2 mi ENE 8.1 mph - N/A   Mostly Cloudy
4:00 AM 42.8 °F 39.3 °F 37.4 °F 81% 30.18 in - ENE 5.8 mph - N/A   Clear
4:30 AM 42.8 °F 38.6 °F 37.4 °F 81% 30.18 in - ENE 6.9 mph - N/A   Clear
5:00 AM 42.8 °F 40.1 °F 37.4 °F 81% 30.18 in 6.2 mi ENE 4.6 mph - N/A   Mostly Cloudy
5:30 AM 42.8 °F 40.1 °F 37.4 °F 81% 30.18 in 6.2 mi NNE 4.6 mph - N/A   Mostly Cloudy
6:00 AM 42.8 °F 40.1 °F 37.4 °F 81% 30.18 in 6.2 mi NE 4.6 mph - N/A   Mostly Cloudy
6:30 AM 41.0 °F 37.1 °F 37.4 °F 87% 30.15 in 6.2 mi ENE 5.8 mph - N/A   Scattered Clouds
7:00 AM 41.0 °F 38.0 °F 37.4 °F 87% 30.15 in 6.2 mi ENE 4.6 mph - N/A   Mostly Cloudy
7:30 AM 42.8 °F 39.3 °F 37.4 °F 81% 30.15 in 6.2 mi East 5.8 mph - N/A   Mostly Cloudy
8:00 AM 44 °F - 38 °F 73% 30.19 in 9 mi East 8.9 mph - -   Partly Cloudy
8:00 AM 44.6 °F 39.7 °F 39.2 °F 81% 30.15 in 6.2 mi East 9.2 mph - N/A   Scattered Clouds
8:30 AM 46.4 °F 42.4 °F 39.2 °F 76% 30.15 in - East 8.1 mph - N/A   Clear
9:00 AM 46.4 °F 41.9 °F 39.2 °F 76% 30.15 in - East 9.2 mph - N/A   Clear
9:30 AM 48.2 °F - 39.2 °F 71% 30.15 in - East 11.5 mph - N/A   Clear
10:00 AM 50.0 °F - 41.0 °F 71% 30.15 in - East 11.5 mph - N/A   Clear
10:30 AM 50.0 °F - 41.0 °F 71% 30.12 in - ENE 9.2 mph - N/A   Clear
11:00 AM 51.8 °F - 41.0 °F 67% 30.12 in - East 11.5 mph - N/A   Clear
11:30 AM 53.6 °F - 42.8 °F 67% 30.12 in - East 10.4 mph - N/A   Clear
12:00 PM 53.6 °F - 42.8 °F 67% 30.09 in - East 12.7 mph - N/A   Clear
12:30 PM 55.4 °F - 42.8 °F 63% 30.09 in - East 11.5 mph - N/A   Clear
1:00 PM 57.2 °F - 44.6 °F 63% 30.09 in - East 9.2 mph - N/A   Clear
1:30 PM 59.0 °F - 46.4 °F 63% 30.06 in - East 10.4 mph - N/A   Clear
2:00 PM 60 °F - 46 °F 50% 30.06 in 6 mi East 11.2 mph - -   Clear
2:00 PM 59.0 °F - 46.4 °F 63% 30.06 in - East 9.2 mph - N/A   Clear
2:30 PM 60.8 °F - 46.4 °F 59% 30.04 in - East 11.5 mph - N/A   Clear
3:00 PM 62.6 °F - 48.2 °F 59% 30.04 in - East 11.5 mph - N/A   Clear
3:30 PM 62.6 °F - 48.2 °F 59% 30.01 in 6.2 mi East 9.2 mph - N/A   Partly Cloudy
4:00 PM 64.4 °F - 48.2 °F 56% 30.01 in 6.2 mi ENE 12.7 mph - N/A   Scattered Clouds
4:30 PM 64.4 °F - 48.2 °F 56% 29.98 in 6.2 mi ENE 12.7 mph - N/A   Scattered Clouds
5:00 PM 64.4 °F - 48.2 °F 56% 29.98 in 6.2 mi East 11.5 mph - N/A   Partly Cloudy
5:30 PM 64.4 °F - 48.2 °F 56% 29.98 in 6.2 mi East 11.5 mph - N/A   Partly Cloudy
6:00 PM 64.4 °F - 48.2 °F 56% 29.95 in 6.2 mi ENE 12.7 mph - N/A   Partly Cloudy
6:30 PM 64.4 °F - 48.2 °F 56% 29.95 in 6.2 mi ENE 11.5 mph - N/A   Partly Cloudy
7:00 PM 64.4 °F - 48.2 °F 56% 29.95 in - ENE 13.8 mph - N/A   Clear
7:30 PM 60.8 °F - 48.2 °F 63% 29.95 in - ENE 11.5 mph - N/A   Clear
8:00 PM 60 °F - 47 °F 52% 29.95 in 12 mi ENE 11.2 mph - -   Scattered Clouds
8:00 PM 59.0 °F - 46.4 °F 63% 29.95 in - East 12.7 mph - N/A   Clear
8:30 PM 59.0 °F - 46.4 °F 63% 29.95 in - East 12.7 mph - N/A   Clear
9:00 PM 59.0 °F - 46.4 °F 63% 29.95 in - East 13.8 mph - N/A   Clear
9:30 PM 57.2 °F - 46.4 °F 67% 29.95 in - ESE 11.5 mph - N/A   Clear
10:00 PM 57.2 °F - 46.4 °F 67% 29.98 in - ESE 11.5 mph - N/A   Clear
10:30 PM 53.6 °F - 46.4 °F 77% 29.98 in - SE 10.4 mph - N/A   Clear
11:00 PM 51.8 °F - 46.4 °F 82% 29.95 in - SE 10.4 mph - N/A   Clear
11:30 PM 51.8 °F - 44.6 °F 76% 29.95 in - SE 10.4 mph - N/A   Clear